Weather History for Point Mugu, CA

Change the Weather History Date:

Thursday, December 5, 2013

  Actual Average Record
Temperature  
Mean Temperature 52 °F -  
Max Temperature 62 °F 62 °F 73 °F (2000)
Min Temperature 42 °F 44 °F 39 °F (2001)
Degree Days  
Heating Degree Days 13    
Growing Degree Days 2 (Base 50)    
Moisture  
Dew Point 31 °F    
Average Humidity 50    
Maximum Humidity 70    
Minimum Humidity 25    
Precipitation  
Precipitation 0.00 in - - ()
Sea Level Pressure  
Sea Level Pressure 30.02 in    
Wind  
Wind Speed 7 mph (NNW)    
Max Wind Speed 12 mph    
Max Gust Speed -    
Visibility 7 miles    
Events      
Averages and records for this station are not official NWS values.
T = Trace of Precipitation, MM = Missing Value Source: NWS Daily Summary

Daily Weather History Graph

Daily Weather History Graph

Search for Another Location

Airport:

Trip Planner

Search our weather history database for the weather conditions in past years. The results will help you decide how hot, cold, wet, or windy it might be!

Date:

Astronomy

Dec. 05, 2013 Rise Set
Actual Time 6:47 AM PST 4:46 PM PST
Civil Twilight 6:20 AM PST 5:14 PM PST
Nautical Twilight 5:49 AM PST 5:45 PM PST
Astronomical Twilight 5:18 AM PST 6:15 PM PST
Moon 9:15 AM PST (12/5) 8:08 PM PST (12/5)
Length of Visible Light 10h 54m
Length of Day
9h 59m
Waxing Crescent, 11% of the Moon is Illuminated
Dec 5
Waxing Crescent
Dec 9
First Quarter
Dec 17
Full
Dec 25
Last Quarter
Jan 1
New

Hourly Weather History & Observations

Time (PST) Temp. Windchill Dew Point Humidity Pressure Visibility Wind Dir Wind Speed Gust Speed Precip Events Conditions
12:54 AM 43.0 °F 38.2 °F 28.9 °F 58% 29.95 in - NNE 8.1 mph - N/A   Clear
1:54 AM 45.0 °F 41.8 °F 28.0 °F 52% 29.95 in - NNE 5.8 mph - N/A   Clear
2:54 AM 44.1 °F 40.1 °F 28.9 °F 55% 29.95 in - North 6.9 mph - N/A   Clear
3:54 AM 44.1 °F 40.1 °F 28.9 °F 55% 29.95 in - NNE 6.9 mph - N/A   Clear
4:54 AM 45.0 °F 40.6 °F 28.9 °F 53% 29.96 in - NNE 8.1 mph - N/A   Clear
5:54 AM 45.0 °F 40.6 °F 28.0 °F 52% 29.98 in 7.0 mi North 8.1 mph - N/A   Clear
6:54 AM 42.1 °F 37.7 °F 28.0 °F 58% 30.00 in 7.0 mi North 6.9 mph - N/A   Partly Cloudy
7:54 AM 46.0 °F 42.5 °F 27.0 °F 47% 30.02 in 7.0 mi North 6.9 mph - N/A   Partly Cloudy
8:54 AM 53.1 °F - 28.0 °F 38% 30.04 in 7.0 mi NNE 5.8 mph - N/A   Partly Cloudy
9:54 AM 59.0 °F - 23.0 °F 25% 30.05 in 7.0 mi NNE 6.9 mph - N/A   Partly Cloudy
10:54 AM 62.1 °F - 30.0 °F 30% 30.04 in 7.0 mi NNW 4.6 mph - N/A   Partly Cloudy
11:54 AM 61.0 °F - 37.0 °F 41% 30.03 in 7.0 mi WSW 9.2 mph - N/A   Partly Cloudy
12:54 PM 61.0 °F - 34.0 °F 36% 30.02 in 7.0 mi SW 8.1 mph - N/A   Partly Cloudy
1:54 PM 61.0 °F - 36.0 °F 39% 30.01 in 7.0 mi WSW 11.5 mph - N/A   Partly Cloudy
2:54 PM 59.0 °F - 37.0 °F 44% 30.01 in 7.0 mi West 11.5 mph - N/A   Partly Cloudy
3:54 PM 57.9 °F - 32.0 °F 37% 30.01 in 7.0 mi West 11.5 mph - N/A   Partly Cloudy
4:54 PM 53.1 °F - 33.1 °F 47% 30.02 in 7.0 mi West 5.8 mph - N/A   Partly Cloudy
5:54 PM 52.0 °F - 35.1 °F 53% 30.04 in 7.0 mi West 3.5 mph - N/A   Partly Cloudy
6:54 PM 48.9 °F - 33.1 °F 54% 30.04 in 7.0 mi East 4.6 mph - N/A   Partly Cloudy
7:54 PM 45.0 °F - 34.0 °F 65% 30.06 in 7.0 mi Calm Calm - N/A   Clear
8:54 PM 46.0 °F 42.5 °F 35.1 °F 66% 30.08 in 7.0 mi NNE 6.9 mph - N/A   Clear
9:54 PM 44.1 °F 40.8 °F 34.0 °F 68% 30.08 in 7.0 mi North 5.8 mph - N/A   Clear
10:54 PM 44.1 °F 40.1 °F 34.0 °F 68% 30.10 in 7.0 mi NNW 6.9 mph - N/A   Clear
11:54 PM 42.1 °F 37.7 °F 33.1 °F 70% 30.11 in - North 6.9 mph - N/A   Clear